| time (UTC) | temp C | wind direction | speed KPH | gust KPH | rain 1hr cm | rain 24hr cm | rain mn cm | humidity % | barometer mb |
| 20260507134605 | 3 | 13 | 0.0 | 0.0 | 0.00 | 0.00 | 0.00 | 68 | 1025.3 |
| 20260507134105 | 3 | 13 | 1.6 | 3.2 | 0.00 | 0.00 | 0.00 | 68 | 1025.4 |
| 20260507133605 | 3 | 9 | 0.0 | 3.2 | 0.00 | 0.00 | 0.00 | 71 | 1025.4 |
| 20260507133105 | 3 | 9 | 1.6 | 4.8 | 0.00 | 0.00 | 0.00 | 68 | 1025.4 |
| 20260507131604 | 3 | 11 | 1.6 | 4.8 | 0.00 | 0.00 | 0.00 | 66 | 1025.5 |
| 20260507130605 | 3 | 9 | 3.2 | 9.7 | 0.00 | 0.00 | 0.00 | 66 | 1025.5 |
| 20260507130104 | 3 | 10 | 3.2 | 9.7 | 0.00 | 0.00 | 0.00 | 65 | 1025.4 |
| 20260507124105 | 2 | 9 | 1.6 | 4.8 | 0.00 | 0.00 | 0.00 | 70 | 1025.3 |
| 20260507123605 | 1 | 7 | 1.6 | 4.8 | 0.00 | 0.00 | 0.00 | 71 | 1025.4 |
| 20260507123105 | 1 | 9 | 0.0 | 4.8 | 0.00 | 0.00 | 0.00 | 71 | 1025.5 |
| 20260507121104 | 2 | 13 | 0.0 | 0.0 | 0.00 | 0.00 | 0.00 | 66 | 1025.6 |
| 20260507120105 | 2 | 10 | 4.8 | 22.5 | 0.00 | 0.00 | 0.00 | 63 | 1025.8 |
| 20260507114605 | 3 | 9 | 12.9 | 20.9 | 0.00 | 0.00 | 0.00 | 61 | 1025.6 |
| 20260507114105 | 3 | 10 | 9.7 | 19.3 | 0.00 | 0.00 | 0.00 | 60 | 1025.7 |
| 20260507113105 | 2 | 9 | 16.1 | 25.7 | 0.00 | 0.00 | 0.00 | 61 | 1025.7 |
| 20260507111604 | 2 | 9 | 16.1 | 25.7 | 0.00 | 0.00 | 0.00 | 63 | 1025.7 |
| 20260507111104 | 2 | 10 | 12.9 | 20.9 | 0.00 | 0.00 | 0.00 | 64 | 1025.8 |
| 20260507110604 | 2 | 10 | 17.7 | 27.4 | 0.00 | 0.00 | 0.00 | 63 | 1025.8 |
| 20260507104605 | 2 | 10 | 16.1 | 24.1 | 0.00 | 0.00 | 0.00 | 62 | 1026.1 |
| 20260507104104 | 2 | 11 | 19.3 | 24.1 | 0.00 | 0.00 | 0.00 | 61 | 1026.2 |
| 20260507103605 | 2 | 10 | 16.1 | 22.5 | 0.00 | 0.00 | 0.00 | 63 | 1026.2 |
| 20260507101605 | 2 | 9 | 6.4 | 11.3 | 0.00 | 0.00 | 0.00 | 63 | 1026.3 |
| 20260507101105 | 1 | 9 | 4.8 | 9.7 | 0.00 | 0.00 | 0.00 | 65 | 1026.5 |
| 20260507100605 | 1 | 9 | 4.8 | 12.9 | 0.00 | 0.00 | 0.00 | 67 | 1026.5 |
| 20260507100105 | 1 | 9 | 4.8 | 19.3 | 0.00 | 0.00 | 0.00 | 69 | 1026.5 |
| 20260507094604 | 2 | 10 | 14.5 | 22.5 | 0.00 | 0.00 | 0.00 | 64 | 1026.6 |
| 20260507094104 | 2 | 10 | 9.7 | 20.9 | 0.00 | 0.00 | 0.00 | 64 | 1026.7 |
| 20260507093604 | 2 | 11 | 11.3 | 20.9 | 0.00 | 0.00 | 0.00 | 66 | 1026.7 |
| 20260507093104 | 1 | 10 | 17.7 | 24.1 | 0.00 | 0.00 | 0.00 | 67 | 1026.8 |
| 20260507091604 | 1 | 9 | 1.6 | 4.8 | 0.00 | 0.00 | 0.00 | 68 | 1026.8 |
| 20260507091104 | 1 | 9 | 3.2 | 8.0 | 0.00 | 0.00 | 0.00 | 68 | 1026.8 |
| 20260507090604 | 2 | 9 | 1.6 | 4.8 | 0.00 | 0.00 | 0.00 | 63 | 1026.9 |
| 20260507090105 | 2 | 10 | 4.8 | 16.1 | 0.00 | 0.00 | 0.00 | 62 | 1026.8 |
| 20260507084604 | 1 | 9 | 6.4 | 11.3 | 0.00 | 0.00 | 0.00 | 66 | 1026.9 |
| 20260507084105 | 1 | 9 | 4.8 | 4.8 | 0.00 | 0.00 | 0.00 | 70 | 1027.0 |
| 20260507083605 | 1 | 9 | 3.2 | 8.0 | 0.00 | 0.00 | 0.00 | 71 | 1027.1 |
| 20260507083105 | 0 | 9 | 3.2 | 4.8 | 0.00 | 0.00 | 0.00 | 71 | 1027.0 |
| 20260507081604 | 1 | 7 | 4.8 | 8.0 | 0.00 | 0.00 | 0.00 | 71 | 1027.0 |
| 20260507080604 | 1 | 9 | 0.0 | 1.6 | 0.00 | 0.00 | 0.00 | 69 | 1027.1 |
| 20260507080105 | 1 | 9 | 4.8 | 4.8 | 0.00 | 0.00 | 0.00 | 68 | 1027.2 |
| 20260507074605 | 1 | 12 | 1.6 | 3.2 | 0.00 | 0.00 | 0.00 | 70 | 1027.3 |
| 20260507074104 | 1 | 12 | 1.6 | 4.8 | 0.00 | 0.00 | 0.00 | 68 | 1027.3 |
| 20260507073604 | 1 | 12 | 0.0 | 3.2 | 0.00 | 0.03 | 0.00 | 68 | 1027.2 |
| 20260507073104 | 1 | 12 | 0.0 | 3.2 | 0.00 | 0.03 | 0.00 | 68 | 1027.3 |
| 20260507071104 | 1 | 10 | 0.0 | 4.8 | 0.00 | 0.05 | 0.00 | 66 | 1027.3 |
| 20260507070604 | 1 | 9 | 1.6 | 4.8 | 0.00 | 0.05 | 0.00 | 67 | 1027.3 |
| 20260507070104 | 2 | 9 | 3.2 | 19.3 | 0.00 | 0.05 | 0.00 | 65 | 1027.3 |
| 20260507064604 | 2 | 9 | 4.8 | 8.0 | 0.00 | 0.05 | 0.00 | 60 | 1027.3 |
| 20260507063605 | 2 | 9 | 8.0 | 12.9 | 0.00 | 0.05 | 0.00 | 62 | 1027.3 |
| 20260507061605 | 2 | 10 | 14.5 | 22.5 | 0.00 | 0.05 | 0.00 | 64 | 1027.2 |
| 20260507061106 | 2 | 11 | 14.5 | 25.7 | 0.00 | 0.05 | 0.00 | 64 | 1027.2 |
| 20260507060604 | 2 | 10 | 19.3 | 25.7 | 0.00 | 0.05 | 0.00 | 63 | 1027.2 |
| 20260507060104 | 2 | 10 | 11.3 | 22.5 | 0.00 | 0.05 | 0.00 | 61 | 1027.2 |
| 20260507054605 | 2 | 10 | 16.1 | 22.5 | 0.00 | 0.08 | 0.05 | 61 | 1027.2 |
| 20260507053605 | 2 | 10 | 14.5 | 24.1 | 0.00 | 0.15 | 0.05 | 61 | 1027.3 |
| 20260507053104 | 2 | 9 | 6.4 | 24.1 | 0.00 | 0.15 | 0.05 | 62 | 1027.2 |
| 20260507051604 | 2 | 10 | 9.7 | 19.3 | 0.00 | 0.15 | 0.05 | 59 | 1027.4 |
| 20260507051104 | 3 | 10 | 11.3 | 20.9 | 0.00 | 0.15 | 0.05 | 59 | 1027.4 |
| 20260507050605 | 3 | 10 | 17.7 | 22.5 | 0.00 | 0.15 | 0.05 | 59 | 1027.4 |
| 20260507050104 | 3 | 9 | 6.4 | 14.5 | 0.00 | 0.15 | 0.05 | 60 | 1027.3 |
| 20260507044104 | 3 | 9 | 9.7 | 14.5 | 0.00 | 0.15 | 0.05 | 57 | 1027.4 |
| 20260507043604 | 3 | 9 | 8.0 | 16.1 | 0.00 | 0.15 | 0.05 | 58 | 1027.4 |
| 20260507041604 | 3 | 9 | 6.4 | 11.3 | 0.00 | 0.15 | 0.05 | 58 | 1027.5 |
| 20260507041104 | 3 | 9 | 6.4 | 9.7 | 0.00 | 0.15 | 0.05 | 59 | 1027.5 |
| 20260507040605 | 3 | 9 | 4.8 | 9.7 | 0.00 | 0.15 | 0.05 | 58 | 1027.5 |
| 20260507040104 | 3 | 9 | 4.8 | 11.3 | 0.00 | 0.15 | 0.05 | 58 | 1027.5 |
| 20260507034604 | 3 | 10 | 4.8 | 8.0 | 0.00 | 0.15 | 0.05 | 59 | 1027.4 |
| 20260507034104 | 3 | 10 | 0.0 | 4.8 | 0.00 | 0.15 | 0.05 | 60 | 1027.2 |
| 20260507033604 | 3 | 9 | 4.8 | 4.8 | 0.00 | 0.15 | 0.05 | 60 | 1027.2 |
| 20260507033104 | 3 | 9 | 3.2 | 8.0 | 0.00 | 0.15 | 0.05 | 60 | 1027.1 |
| 20260507031604 | 3 | 9 | 4.8 | 4.8 | 0.00 | 0.15 | 0.05 | 58 | 1026.7 |
| 20260507031104 | 4 | 9 | 3.2 | 4.8 | 0.00 | 0.18 | 0.05 | 56 | 1026.7 |
| 20260507030104 | 5 | 8 | 4.8 | 8.0 | 0.00 | 0.20 | 0.05 | 53 | 1026.5 |
| 20260507024604 | 6 | 15 | 3.2 | 4.8 | 0.00 | 0.28 | 0.05 | 48 | 1026.4 |
| 20260507023604 | 6 | 15 | 3.2 | 4.8 | 0.00 | 0.43 | 0.05 | 47 | 1026.4 |
| 20260507021604 | 7 | 15 | 1.6 | 4.8 | 0.00 | 0.51 | 0.05 | 42 | 1026.2 |
| 20260507021104 | 7 | 15 | 1.6 | 3.2 | 0.00 | 0.51 | 0.05 | 42 | 1026.3 |
| 20260507020104 | 7 | 15 | 3.2 | 14.5 | 0.00 | 0.51 | 0.05 | 40 | 1026.4 |
| 20260507014604 | 8 | 13 | 1.6 | 11.3 | 0.00 | 0.51 | 0.05 | 39 | 1026.4 |
| 20260507013604 | 8 | 14 | 3.2 | 19.3 | 0.00 | 0.51 | 0.05 | 38 | 1026.3 |
| 20260507013104 | 8 | 14 | 4.8 | 14.5 | 0.00 | 0.51 | 0.05 | 38 | 1026.3 |
| 20260507011604 | 8 | 15 | 1.6 | 8.0 | 0.00 | 0.51 | 0.05 | 39 | 1026.2 |
| 20260507011104 | 8 | 13 | 3.2 | 8.0 | 0.00 | 0.51 | 0.05 | 38 | 1026.2 |
| 20260507010604 | 9 | 9 | 3.2 | 9.7 | 0.00 | 0.51 | 0.05 | 37 | 1026.3 |
| 20260507010104 | 9 | 13 | 6.4 | 16.1 | 0.00 | 0.51 | 0.05 | 37 | 1026.2 |
| 20260507004604 | 9 | 14 | 9.7 | 16.1 | 0.00 | 0.51 | 0.05 | 37 | 1026.2 |
| 20260507004104 | 9 | 14 | 4.8 | 14.5 | 0.00 | 0.51 | 0.05 | 39 | 1026.1 |
| 20260507003604 | 9 | 14 | 3.2 | 9.7 | 0.00 | 0.51 | 0.05 | 37 | 1026.1 |
| 20260507001604 | 9 | 8 | 3.2 | 9.7 | 0.00 | 0.51 | 0.05 | 38 | 1025.9 |
| 20260507001103 | 9 | 13 | 6.4 | 11.3 | 0.00 | 0.51 | 0.05 | 38 | 1026.0 |
| 20260507000104 | 9 | 14 | 8.0 | 16.1 | 0.00 | 0.51 | 0.05 | 39 | 1026.0 |
| 20260506234604 | 9 | 10 | 3.2 | 16.1 | 0.00 | 0.51 | 0.05 | 40 | 1025.9 |
| 20260506234104 | 9 | 12 | 4.8 | 14.5 | 0.00 | 0.51 | 0.05 | 40 | 1025.8 |
| 20260506233604 | 9 | 14 | 4.8 | 11.3 | 0.00 | 0.51 | 0.05 | 40 | 1025.9 |
| 20260506231604 | 9 | 14 | 4.8 | 14.5 | 0.00 | 0.51 | 0.05 | 39 | 1026.0 |
| 20260506231104 | 9 | 14 | 6.4 | 19.3 | 0.00 | 0.51 | 0.05 | 40 | 1025.9 |
| 20260506230604 | 9 | 14 | 6.4 | 11.3 | 0.00 | 0.51 | 0.05 | 41 | 1025.9 |
| 20260506230104 | 9 | 13 | 3.2 | 19.3 | 0.00 | 0.51 | 0.05 | 40 | 1025.8 |
| 20260506224604 | 9 | 14 | 3.2 | 4.8 | 0.00 | 0.51 | 0.05 | 42 | 1026.0 |
| 20260506223604 | 9 | 10 | 4.8 | 8.0 | 0.00 | 0.51 | 0.05 | 40 | 1026.2 |
| 20260506223104 | 9 | 13 | 9.7 | 20.9 | 0.00 | 0.51 | 0.05 | 39 | 1026.2 |
| 20260506221605 | 8 | 10 | 8.0 | 16.1 | 0.00 | 0.51 | 0.05 | 41 | 1026.3 |
| 20260506221105 | 8 | 13 | 3.2 | 11.3 | 0.00 | 0.51 | 0.05 | 39 | 1026.3 |
| 20260506220605 | 8 | 9 | 3.2 | 11.3 | 0.00 | 0.51 | 0.05 | 39 | 1026.3 |
| 20260506220105 | 8 | 10 | 3.2 | 19.3 | 0.00 | 0.51 | 0.05 | 38 | 1026.4 |
| 20260506214606 | 8 | 9 | 8.0 | 14.5 | 0.00 | 0.51 | 0.05 | 41 | 1026.6 |
| 20260506214105 | 8 | 10 | 4.8 | 19.3 | 0.00 | 0.51 | 0.05 | 41 | 1026.9 |
| 20260506213605 | 7 | 10 | 9.7 | 16.1 | 0.00 | 0.51 | 0.05 | 42 | 1027.0 |
| 20260506213105 | 7 | 9 | 8.0 | 19.3 | 0.00 | 0.51 | 0.05 | 39 | 1027.0 |
| 20260506211605 | 7 | 9 | 3.2 | 14.5 | 0.00 | 0.53 | 0.05 | 37 | 1027.0 |
| 20260506211104 | 7 | 10 | 6.4 | 19.3 | 0.00 | 0.56 | 0.05 | 35 | 1026.9 |
| 20260506210605 | 7 | 10 | 8.0 | 19.3 | 0.00 | 0.58 | 0.05 | 36 | 1027.1 |
| 20260506210105 | 7 | 13 | 4.8 | 14.5 | 0.00 | 0.61 | 0.05 | 35 | 1027.1 |
| 20260506204605 | 7 | 10 | 6.4 | 11.3 | 0.00 | 0.71 | 0.05 | 33 | 1027.1 |
| 20260506204105 | 7 | 14 | 8.0 | 19.3 | 0.00 | 0.76 | 0.05 | 32 | 1027.0 |
| 20260506203606 | 7 | 10 | 4.8 | 16.1 | 0.00 | 0.76 | 0.05 | 35 | 1027.0 |
| 20260506201605 | 6 | 10 | 6.4 | 11.3 | 0.00 | 0.81 | 0.05 | 37 | 1026.9 |
| 20260506201105 | 6 | 12 | 9.7 | 19.3 | 0.00 | 0.81 | 0.05 | 41 | 1026.9 |
| 20260506200605 | 6 | 9 | 9.7 | 16.1 | 0.00 | 0.81 | 0.05 | 36 | 1026.9 |
| 20260506200105 | 6 | 9 | 4.8 | 14.5 | 0.00 | 0.81 | 0.05 | 39 | 1026.8 |
| 20260506194605 | 6 | 9 | 8.0 | 16.1 | 0.00 | 0.81 | 0.05 | 40 | 1026.7 |
| 20260506194105 | 6 | 9 | 1.6 | 4.8 | 0.00 | 0.81 | 0.05 | 46 | 1026.6 |
| 20260506193605 | 6 | 9 | 1.6 | 16.1 | 0.00 | 0.81 | 0.05 | 44 | 1026.7 |
| 20260506193105 | 6 | 12 | 6.4 | 19.3 | 0.00 | 0.81 | 0.05 | 52 | 1026.6 |
| 20260506191605 | 6 | 12 | 8.0 | 16.1 | 0.00 | 0.81 | 0.05 | 50 | 1026.6 |
| 20260506191105 | 6 | 10 | 4.8 | 11.3 | 0.00 | 0.81 | 0.05 | 49 | 1026.6 |
| 20260506184604 | 6 | 15 | 8.0 | 16.1 | 0.00 | 0.86 | 0.05 | 41 | 1026.5 |
| 20260506184104 | 6 | 14 | 8.0 | 20.9 | 0.00 | 0.86 | 0.05 | 45 | 1026.4 |
| 20260506183605 | 6 | 10 | 4.8 | 14.5 | 0.00 | 0.89 | 0.05 | 50 | 1026.3 |
| 20260506181605 | 5 | 14 | 9.7 | 19.3 | 0.00 | 0.97 | 0.05 | 45 | 1026.2 |
| 20260506180605 | 5 | 9 | 8.0 | 16.1 | 0.00 | 0.99 | 0.05 | 51 | 1026.1 |
| 20260506174605 | 5 | 13 | 11.3 | 22.5 | 0.00 | 1.02 | 0.05 | 53 | 1025.6 |
| 20260506174105 | 5 | 13 | 11.3 | 20.9 | 0.00 | 1.04 | 0.05 | 60 | 1025.5 |
| 20260506173105 | 3 | 13 | 8.0 | 19.3 | 0.00 | 1.04 | 0.05 | 63 | 1025.5 |
| 20260506171605 | 3 | 14 | 8.0 | 16.1 | 0.00 | 1.04 | 0.05 | 67 | 1025.4 |
| 20260506171105 | 3 | 13 | 8.0 | 20.9 | 0.00 | 1.04 | 0.05 | 71 | 1025.4 |
| 20260506170605 | 3 | 12 | 8.0 | 22.5 | 0.00 | 1.04 | 0.05 | 77 | 1025.2 |
| 20260506170105 | 3 | 12 | 9.7 | 20.9 | 0.00 | 1.04 | 0.05 | 74 | 1025.1 |
| 20260506164605 | 3 | 12 | 9.7 | 19.3 | 0.00 | 1.09 | 0.05 | 75 | 1024.8 |
| 20260506164105 | 2 | 12 | 8.0 | 19.3 | 0.00 | 1.12 | 0.05 | 74 | 1024.9 |
| 20260506163605 | 2 | 13 | 8.0 | 19.3 | 0.00 | 1.14 | 0.05 | 77 | 1024.8 |
| 20260506163105 | 2 | 13 | 8.0 | 19.3 | 0.00 | 1.14 | 0.05 | 77 | 1024.7 |
| 20260506161605 | 2 | 13 | 8.0 | 16.1 | 0.00 | 1.24 | 0.05 | 76 | 1024.6 |
| 20260506160604 | 2 | 13 | 4.8 | 19.3 | 0.00 | 1.30 | 0.05 | 77 | 1024.4 |
| 20260506160105 | 2 | 12 | 6.4 | 19.3 | 0.00 | 1.30 | 0.05 | 77 | 1024.4 |
| 20260506154604 | 2 | 13 | 6.4 | 19.3 | 0.00 | 1.30 | 0.05 | 80 | 1024.1 |
| 20260506154105 | 2 | 12 | 8.0 | 14.5 | 0.00 | 1.30 | 0.05 | 82 | 1024.1 |
| 20260506153605 | 2 | 12 | 8.0 | 12.9 | 0.00 | 1.30 | 0.05 | 79 | 1024.2 |
| 20260506153105 | 1 | 12 | 8.0 | 14.5 | 0.00 | 1.30 | 0.05 | 82 | 1024.2 |
| 20260506151605 | 1 | 12 | 3.2 | 8.0 | 0.00 | 1.30 | 0.05 | 82 | 1024.1 |
| 20260506151105 | 1 | 13 | 3.2 | 8.0 | 0.00 | 1.32 | 0.05 | 82 | 1024.0 |
| 20260506144604 | 0 | 12 | 3.2 | 14.5 | 0.00 | 1.57 | 0.05 | 81 | 1024.1 |
| 20260506144104 | 0 | 14 | 3.2 | 11.3 | 0.00 | 1.60 | 0.05 | 85 | 1024.0 |
| 20260506143105 | 0 | 12 | 3.2 | 9.7 | 0.00 | 1.68 | 0.05 | 85 | 1024.0 |
| 20260506141604 | 0 | 13 | 3.2 | 9.7 | 0.00 | 1.73 | 0.05 | 85 | 1023.8 |
| 20260506141104 | 0 | 13 | 1.6 | 8.0 | 0.00 | 1.73 | 0.05 | 86 | 1023.8 |
| 20260506140605 | -1 | 14 | 1.6 | 4.8 | 0.00 | 1.73 | 0.05 | 85 | 1023.7 |
| 20260506140105 | -1 | 13 | 3.2 | 8.0 | 0.00 | 1.73 | 0.05 | 83 | 1023.8 |